Погода в Петрокрепости

Погода в Петрокрепости : погода сейчас, прогноз погоды и архив. Всё, что Вы хотите узнать о погоде в Петрокрепости!

Хотите узнать прогноз погоды в Петрокрепости? Тогда Вам сюда: Погода в Петрокрепости

Поиск расширенной информации на нашем сайте:

Полезная информация: Вывод из запоя на дому 5000 руб - Наркологическая клиника.

Другие новости

Новости СМИ2

Главная страница сайта

Новости сайта

03.07.2017

Напоминаем, что на нашем специализированном сайте Метеоцентр.Азия вы можете получить высокодетализированные автоматические прогнозы погоды по пунктам России, СНГ и мира в авиационном формате (включающие направление и скорость ветра, видимость, явления погоды, количество и форму облачности, нижнюю и верхнюю границу облачности).

Рекомендуем: автошкола в марьино найти описание в каталоге

Погода в Петрокрепости - сегодня

Время (UTC), дата Ветер
(°,м/с) 
Видим.   Явления Облачность Т
(°С)
Тd
(°С)
f(%) Тe
(°С)
Pmin
(гПа)
dP
(гПа)
Po
(мм)
O2
(г/м3)
Тmin Tmax R s Состояние
почвы
15 17.10.17 210 (ЮЗ) 20000 м    10/10 630 м 
[Sc]
+9.2 +5.6 78 +9  1008.9  -1.3  755  294           
18 17.10.17 180 (Ю) 20000 м    10/10 800 м 
[Sc]
+7.4 +6.1 91 +7  1005.4  -3.5  753  294    +10.4       
21 17.10.17 180 (Ю) 10 км  слаб. дождь{морось}  10/10 300 м 
[Frnb|Ns]
+7.6 +7.3 98 +8  1000.4  -5  749  292           
00 18.10.17 210 (ЮЗ) 10 км  слаб. дождь{морось}  10/10 330 м 
[Frnb|Ns]
+10.1 +9.9 99 +11  997.7  -2.6  747  288           
03 18.10.17 240 (ЮЗ) 20000 м  {дождь}  10/10 600 м 
[Sc]
+10.9 +9.8 93 +12  996.6  -1.2  746  287  +6.9       
06 18.10.17 220 (ЮЗ) 4000 м  слаб. дождь  10/10 420 м 
[Frnb|Ns]
+10.1 +9.6 97 +11  995.2  -1.3  745  288  +6.9       
09 18.10.17 300 (СЗ) 10 км  слаб. дождь  10/10 420 м 
[Ns]
+10.4 +9.6 95 +13  995.4  -0.1  745  287           
12 18.10.17 350 (С) 20000 м  {дождь}  10/10 500 м 
[Sc]
+6.2 +5.3 94 +6  999.5  4.1  748  294           
15 18.10.17 280 (З) 20000 м    10/8 600 м средняя 
[Sc|Ac und]
+5.8 +4.7 93 +7  1002.7  3.2  751  295         
18 18.10.17 250 (З) 20000 м    9/3 600 м средняя 
[Sc|Ac trans]
+5.8 +3.9 88 +6  1004.6  1.8  752  296    +10.7     
21 18.10.17 250 (З) 20000 м    6/0 средняя 
[Ac trans]
+4.5 +2.9 89 +5  1005.9  1.3  753  298           
00 19.10.17 280 (З) 20000 м    ясно 
+4.5 +3.2 91 +5  1007.5  1.5  754  298           
03 19.10.17 290 (З) 20000 м    4/0 средняя, верхняя 
[Ac trans|Ci]
+4.6 +3.2 91 +5  1009.2  1.8  755  299  +3.9         
06 19.10.17 280 (З) 20000 м    9/3 600 м средняя 
[Sc|Ac trans]
+5.1 +3.6 90 +6  1011.3  757  299  +3.9         
09 19.10.17 300 (СЗ) 20000 м    9/8 800 м средняя 
[Sc|Ac trans]
+6.4 +2.9 78 +7  1013.4  2.1  759  298           
12 19.10.17 300 (СЗ) 20000 м    9/5 800 м средняя 
[Sc|Ac trans]
+6.9 +2.8 75 +8  1015.2  1.7  760  298           
15 19.10.17 310 (СЗ) 20000 м    9/8 800 м средняя 
[Sc|Ac trans]
+5.4 +2.1 79 +6  1016.7  1.5  761  300           
18 19.10.17 тихо ()   20000 м    10/0 средняя 
[Ac und]
+3.7 +2.3 91 +4  1018  1.3  762  303    +7       
21 19.10.17 тихо ()   20000 м    9/8 800 м средняя 
[Sc|Ac trans]
+3.7 +2.4 91 +4  1019.2  1.2  763  303           
00 20.10.17 тихо ()   20000 м    9/5 600 м средняя 
[Sc|Ac trans]
+3.4 +2.5 94 +3  1019.6  0.5  763  303           
03 20.10.17 290 (З) 20000 м    9/0 средняя 
[Ac trans]
+3.3 +2.8 97 +4  1020.4  0.7  764  304  +3.2         
06 20.10.17 тихо ()   20000 м    10/5 600 м средняя 
[Sc|Ac und]
+3.5 +2.9 96 +4  1021.2  0.8  764  304  +3.2         
09 20.10.17 тихо ()   20000 м  {ливн. осадки}  10/0 средняя 
[Ac und]
+4.1 +3.1 93 +4  1021.9  0.7  765  303           
12 20.10.17 320 (СЗ) 20000 м  {ливн. осадки}  9/5 1000 м средняя 
[Cu med, cong|Ac trans]
+5.5 +2.8 83 +6  1022.1  0.2  765  302           
15 20.10.17 330 (СЗ) 20000 м  {ливн. осадки}  10/5 600 м средняя 
[Sc|Ac und]
+2.8 +1.8 93 +4  1022.7  0.6  766  305      0.3     
Время (UTC), дата Ветер
(°,м/с) 
Видим.   Явления Облачность Т
(°С)
Тd
(°С)
f(%) Тe
(°С)
Pmin
(гПа)
dP
(гПа)
Po
(мм)
O2
(г/м3)
Тmin Tmax R s Состояние
почвы

Для получения пояснительной информации подведите курсор к названию столбца.

ПОГОДА в Петрокрепости - архив

Всё, что Вы хотите узнать о погоде в Петрокрепости - удобно и подробно!

Выберите нужную дату (начиная с 1 января 2015* года) и нажмите кнопку "Найти".
Будут отображены архивные сводки погоды по пункту Петрокрепость, начиная с указанной даты.


Отображать данные в формате CSV (для использования в таблицах Excel)


Внимание! Наш архив погоды предназначен исключительно для личного некоммерческого использования в познавательных целях. Если Вам необходимы официальные справки о состоянии погоды (для производственных, юридических, коммерческих и т.п. целей), обращайтесь в органы Росгидромета.

*Примечание: данная дата относится к архиву по метеостанциям СССР (Россия, СНГ, Балтия).
Архив по метеостанциям Зарубежной Европы и Азии (кроме Китая) хранится 10 дней, по другим регионам земного шара (Китай, Африка, Америка, Австралия, Океания) - 1 день.

Петрокрепость - район местоположения метеостанции


Название, широта, долгота, высота метеостанции:
Петрокрепость 59.9°ш. 31°д. 17 м над ур. моря [Российская Федерация]

Дополнительная информация

В oтличие oт бoльшинства пoгoдных сайтoв мы публикуем пoдрoбную метеoинфoрмацию в детальнoм прoфессиoнальнoм фoрмате.

Характеристики температуры и влажнoсти вoздуха измеряются на высoте 2 м в тени вдали oт зданий и деревьев.
Скoрoсть ветра измеряется на высoте 10 м (на урoвне рoста челoвека скoрoсть ветра ниже в 1.5-2 раза). Если метеoстанция нахoдится в гoрoде или в лесу, тo скoрoсть ветра занижена на 2-4 м/с пo сравнению с oткрытым местoм. Скoрoсть ветра над акватoриями крупных рек и oзёр, а также на вершинах хoлмoв на 2-5 м/с выше, чем в oбычных услoвиях.
Атмoсфернoе давление в разных тoчках местнoсти мoжет значительнo oтличаться oт давления на метеoстанции, в зависимoсти oт услoвий рельефа (при пoдъёме на 10 м давление пoнижается примернo на 1 мм рт.ст.).